Location: Krakow
(50.0830°N, 19.9170°E)
Time: 13:52:40
(UTC+01:00)

Vanguard 3 - Visible Passes

Search period start: 04 December 2023 00:00
Search period end: 14 December 2023 00:00
Orbit: 507 x 3241 km, 33.3° (Epoch: 04 December)

Date Brightness Start Highest point End Pass type
(mag) Time Alt. Az. Time Alt. Az. Time Alt. Az.
05 Dec 10.7 20:11:14 10° SSW 20:14:19 14° S 20:14:19 14° S visible
06 Dec 10.6 18:55:13 10° S 19:01:25 14° SSE 19:01:55 14° SSE visible
06 Dec 10.8 21:04:16 10° SW 21:06:14 14° SSW 21:06:14 14° SSW visible
07 Dec 10.4 19:46:19 10° SSW 19:53:49 20° S 19:53:49 20° S visible
08 Dec 10.5 18:29:33 10° S 18:38:33 17° SSE 18:41:23 16° SE visible
08 Dec 10.5 20:39:51 10° SW 20:45:42 21° SSW 20:45:42 21° SSW visible
09 Dec 10.8 17:15:38 10° SSE 17:20:48 12° SE 17:25:28 10° SE visible
09 Dec 10.2 19:21:33 10° SSW 19:33:14 25° SSE 19:33:14 25° SSE visible
09 Dec 10.8 21:34:34 10° SW 21:37:34 16° SW 21:37:34 16° SW visible
10 Dec 10.4 18:04:20 10° SSW 18:15:31 21° SSE 18:20:45 17° SE visible
10 Dec 10.2 20:15:27 10° SW 20:25:04 28° SSW 20:25:04 28° SSW visible
11 Dec 10.8 16:49:14 10° S 16:57:36 15° SE 17:04:54 10° ESE visible
11 Dec 10.1 18:56:54 10° SSW 19:10:22 28° SSE 19:12:34 27° SSE visible
11 Dec 10.5 21:10:24 10° WSW 21:16:53 24° SW 21:16:53 24° SW visible
12 Dec 10.5 17:39:24 10° SSW 17:52:19 24° SSE 18:00:02 15° ESE visible
12 Dec 10.0 19:51:03 10° SW 20:04:20 34° S 20:04:20 34° S visible
12 Dec 10.9 22:05:59 10° WSW 22:08:40 15° WSW 22:08:40 15° WSW visible
13 Dec 10.9 16:23:45 10° S 16:34:15 18° SE 16:43:24 10° ESE visible
13 Dec 10.1 18:32:21 10° SW 18:47:12 32° SSE 18:51:47 27° SE visible
13 Dec 10.2 20:46:10 10° WSW 20:56:06 31° SSW 20:56:06 31° SSW visible
